Hourly Data Report for August 20, 2009

All times are specified in Local Standard Time (LST). Add 1 hour to adjust for Daylight Saving Time where and when it is observed.

EMERSON AUT
MANITOBA

49°00'00.000" N
97°14'15.000" W
242.00 m
5020882
71560
WEX

Download Data

Hourly Data (August 2009)
Hourly Data Report for August 20, 2009
Temp Definition
°C
Dew Point Temp Definition
°C
Rel Hum Definition
%
Wind Dir Definition
10's deg

Wind Spd Definition
km/h
Visibility Definition
km
Stn Press Definition
kPa
Hmdx Definition


Wind Chill Definition


Weather Definition


TIME
00:00 13.8 13.5 98 36 6   97.25     LegendNANA
01:00 13.8 13.5 98 2 6   97.27     LegendNANA
02:00 14.8 14.3 97 3 13   97.26     LegendNANA
03:00 14.3 13.8 97 31 6   97.30     LegendNANA
04:00 14.4 13.9 97 34 7   97.31     LegendNANA
05:00 14.0 13.7 98 33 13   97.38     LegendNANA
06:00 14.4 14.2 99 33 15   97.43     LegendNANA
07:00 14.5 14.1 97 33 17   97.48     LegendNANA
08:00 15.4 14.8 96 34 15   97.52     LegendNANA
09:00 16.5 15.3 93 35 19   97.54     LegendNANA
10:00 16.8 15.2 90 2 17   97.59     LegendNANA
11:00 17.6 15.5 87 36 17   97.62     LegendNANA
12:00 19.3 15.4 78 36 19   97.65     LegendNANA
13:00 19.3 15.3 78 36 15   97.70     LegendNANA
14:00 20.2 14.9 72 2 19   97.69     LegendNANA
15:00 18.3 14.4 78 2 26   97.73     LegendNANA
16:00 18.1 14.5 79 2 19   97.74     LegendNANA
17:00 17.2 15.5 90 32 22   97.84     LegendNANA
18:00 16.9 15.1 89 33 19   97.89     LegendNANA
19:00 16.3 14.7 90 34 26   97.96     LegendNANA
20:00 16.0 15.2 95 34 22   98.04     LegendNANA
21:00 15.8 15.2 96 35 20   98.13     LegendNANA
22:00 14.9 13.8 93 34 30   98.19     LegendNANA
23:00 14.1 13.4 96 35 26   98.24     LegendNANA

Notes on Data Quality.

Legend

  • E = Estimated
  • M = Missing
  • NA = Not Available
  • ‡ = Partner data that is not subject to review by the National Climate Archives
Date modified: